Time,TemperatureF,DewpointF,PressureIn,WindDirection,WindDirectionDegrees,WindSpeedMPH,WindSpeedGustMPH,Humidity,HourlyPrecipIn,Conditions,Clouds,dailyrainin,SolarRadiationWatts/m^2,SoftwareType,DateUTC
2013-01-17 00:03:00,34.3,30.5,30.27,NW,321,0.0,0.0,86,0.00,,,0.00,0.0,WUHU216DAVISVP2,2013-01-17 08:03:00,
2013-01-17 00:08:00,34.3,31.1,30.27,NW,321,0.0,0.0,88,0.00,,,0.00,0.0,WUHU216DAVISVP2,2013-01-17 08:08:00,
2013-01-17 00:13:00,34.2,30.7,30.27,NW,321,0.0,0.0,87,0.00,,,0.00,0.0,WUHU216DAVISVP2,2013-01-17 08:13:00,
2013-01-17 00:18:00,34.0,30.5,30.27,NW,321,0.0,0.0,87,0.00,,,0.00,0.0,WUHU216DAVISVP2,2013-01-17 08:18:00,
2013-01-17 00:23:00,33.9,30.7,30.27,NW,321,0.0,0.0,88,0.00,,,0.00,0.0,WUHU216DAVISVP2,2013-01-17 08:23:00,
2013-01-17 00:28:00,34.0,31.1,30.27,NW,321,0.0,0.0,89,0.00,,,0.00,0.0,WUHU216DAVISVP2,2013-01-17 08:28:00,
2013-01-17 00:33:00,34.2,31.3,30.27,NW,321,0.0,0.0,89,0.00,,,0.00,0.0,WUHU216DAVISVP2,2013-01-17 08:33:00,
2013-01-17 00:38:00,34.3,31.4,30.27,NW,321,0.0,0.0,89,0.00,,,0.00,0.0,WUHU216DAVISVP2,2013-01-17 08:38:00,
2013-01-17 00:43:00,34.8,32.1,30.27,NW,321,0.0,0.0,90,0.00,,,0.00,0.0,WUHU216DAVISVP2,2013-01-17 08:43:00,
2013-01-17 00:48:00,35.0,31.8,30.27,NW,321,0.0,0.0,88,0.00,,,0.00,0.0,WUHU216DAVISVP2,2013-01-17 08:48:00,
2013-01-17 00:54:00,35.2,32.2,30.27,NW,321,0.0,0.0,89,0.00,,,0.00,0.0,WUHU216DAVISVP2,2013-01-17 08:54:00,
2013-01-17 00:58:00,35.2,31.4,30.27,NW,321,0.0,0.0,86,0.00,,,0.00,0.0,WUHU216DAVISVP2,2013-01-17 08:58:00,
2013-01-17 01:04:00,34.9,30.8,30.27,NW,321,0.0,0.0,85,0.00,,,0.00,0.0,WUHU216DAVISVP2,2013-01-17 09:04:00,
2013-01-17 01:08:00,34.8,31.0,30.27,NW,321,0.0,0.0,86,0.00,,,0.00,0.0,WUHU216DAVISVP2,2013-01-17 09:08:00,
2013-01-17 01:13:00,34.8,31.3,30.27,NW,321,0.0,0.0,87,0.00,,,0.00,0.0,WUHU216DAVISVP2,2013-01-17 09:13:00,
2013-01-17 01:18:00,35.0,31.5,30.27,NW,321,0.0,0.0,87,0.00,,,0.00,0.0,WUHU216DAVISVP2,2013-01-17 09:18:00,
2013-01-17 01:23:00,35.0,31.2,30.27,NW,321,0.0,0.0,86,0.00,,,0.00,0.0,WUHU216DAVISVP2,2013-01-17 09:23:00,
2013-01-17 01:28:00,34.9,30.8,30.27,NW,321,0.0,0.0,85,0.00,,,0.00,0.0,WUHU216DAVISVP2,2013-01-17 09:28:00,
2013-01-17 01:33:00,34.7,30.3,30.27,NW,321,0.0,0.0,84,0.00,,,0.00,0.0,WUHU216DAVISVP2,2013-01-17 09:33:00,
2013-01-17 01:39:00,34.5,30.4,30.27,NW,321,0.0,0.0,85,0.00,,,0.00,0.0,WUHU216DAVISVP2,2013-01-17 09:39:00,
2013-01-17 01:44:00,34.5,31.0,30.27,NW,321,0.0,0.0,87,0.00,,,0.00,0.0,WUHU216DAVISVP2,2013-01-17 09:44:00,
2013-01-17 01:49:00,34.6,31.1,30.27,NW,321,0.0,0.0,87,0.00,,,0.00,0.0,WUHU216DAVISVP2,2013-01-17 09:49:00,
2013-01-17 01:54:00,34.8,31.6,30.27,NW,321,0.0,0.0,88,0.00,,,0.00,0.0,WUHU216DAVISVP2,2013-01-17 09:54:00,
2013-01-17 01:59:00,34.7,30.9,30.27,NW,321,0.0,0.0,86,0.00,,,0.00,0.0,WUHU216DAVISVP2,2013-01-17 09:59:00,
2013-01-17 02:04:00,34.5,30.7,30.27,NW,321,0.0,0.0,86,0.00,,,0.00,0.0,WUHU216DAVISVP2,2013-01-17 10:04:00,
2013-01-17 02:09:00,34.4,30.6,30.27,NW,321,0.0,0.0,86,0.00,,,0.00,0.0,WUHU216DAVISVP2,2013-01-17 10:09:00,
2013-01-17 02:14:00,34.4,30.9,30.27,NW,321,0.0,0.0,87,0.00,,,0.00,0.0,WUHU216DAVISVP2,2013-01-17 10:14:00,
2013-01-17 02:19:00,34.3,30.8,30.27,NW,321,0.0,0.0,87,0.00,,,0.00,0.0,WUHU216DAVISVP2,2013-01-17 10:19:00,
2013-01-17 02:24:00,34.1,30.6,30.27,NW,321,0.0,0.0,87,0.00,,,0.00,0.0,WUHU216DAVISVP2,2013-01-17 10:24:00,
2013-01-17 02:29:00,33.6,29.5,30.27,NW,321,0.0,0.0,85,0.00,,,0.00,0.0,WUHU216DAVISVP2,2013-01-17 10:29:00,
2013-01-17 02:34:00,33.2,29.5,30.27,NW,321,0.0,0.0,86,0.00,,,0.00,0.0,WUHU216DAVISVP2,2013-01-17 10:34:00,
2013-01-17 02:39:00,33.0,29.8,30.27,NW,321,0.0,0.0,88,0.00,,,0.00,0.0,WUHU216DAVISVP2,2013-01-17 10:39:00,
2013-01-17 02:44:00,32.8,29.6,30.27,NW,321,0.0,0.0,88,0.00,,,0.00,0.0,WUHU216DAVISVP2,2013-01-17 10:44:00,
2013-01-17 02:49:00,32.4,29.2,30.27,NW,321,0.0,0.0,88,0.00,,,0.00,0.0,WUHU216DAVISVP2,2013-01-17 10:49:00,
2013-01-17 02:54:00,32.3,29.4,30.27,NW,321,0.0,0.0,89,0.00,,,0.00,0.0,WUHU216DAVISVP2,2013-01-17 10:54:00,
2013-01-17 02:59:00,32.2,29.6,30.27,NW,321,0.0,0.0,90,0.00,,,0.00,0.0,WUHU216DAVISVP2,2013-01-17 10:59:00,
2013-01-17 03:04:00,32.4,30.1,30.27,NW,321,0.0,0.0,91,0.00,,,0.00,0.0,WUHU216DAVISVP2,2013-01-17 11:04:00,
2013-01-17 03:09:00,33.2,31.1,30.27,NW,321,0.0,2.0,92,0.00,,,0.00,0.0,WUHU216DAVISVP2,2013-01-17 11:09:00,
2013-01-17 03:14:00,33.4,31.1,30.27,NW,321,0.0,2.0,91,0.00,,,0.00,0.0,WUHU216DAVISVP2,2013-01-17 11:14:00,
2013-01-17 03:19:00,33.4,30.7,30.27,NW,321,0.0,2.0,90,0.00,,,0.00,0.0,WUHU216DAVISVP2,2013-01-17 11:19:00,
2013-01-17 03:24:00,33.3,30.6,30.27,NW,321,0.0,2.0,90,0.00,,,0.00,0.0,WUHU216DAVISVP2,2013-01-17 11:24:00,
2013-01-17 03:29:00,33.2,30.3,30.27,NW,321,0.0,0.0,89,0.00,,,0.00,0.0,WUHU216DAVISVP2,2013-01-17 11:29:00,
2013-01-17 03:34:00,32.9,29.7,30.27,NW,321,0.0,0.0,88,0.00,,,0.00,0.0,WUHU216DAVISVP2,2013-01-17 11:34:00,
2013-01-17 03:39:00,32.6,29.4,30.27,NW,321,0.0,0.0,88,0.00,,,0.00,0.0,WUHU216DAVISVP2,2013-01-17 11:39:00,
2013-01-17 03:44:00,32.5,29.6,30.27,NW,321,0.0,0.0,89,0.00,,,0.00,0.0,WUHU216DAVISVP2,2013-01-17 11:44:00,
2013-01-17 03:49:00,32.4,29.5,30.27,NW,321,0.0,0.0,89,0.00,,,0.00,0.0,WUHU216DAVISVP2,2013-01-17 11:49:00,
2013-01-17 03:54:00,32.0,29.1,30.27,NW,321,0.0,0.0,89,0.00,,,0.00,0.0,WUHU216DAVISVP2,2013-01-17 11:54:00,
2013-01-17 03:59:00,31.8,28.9,30.27,NW,321,0.0,0.0,89,0.00,,,0.00,0.0,WUHU216DAVISVP2,2013-01-17 11:59:00,
2013-01-17 04:04:00,31.7,29.1,30.27,NW,321,0.0,0.0,90,0.00,,,0.00,0.0,WUHU216DAVISVP2,2013-01-17 12:04:00,
2013-01-17 04:09:00,31.4,28.8,30.27,NW,321,0.0,0.0,90,0.00,,,0.00,0.0,WUHU216DAVISVP2,2013-01-17 12:09:00,
2013-01-17 04:14:00,31.0,28.4,30.26,NW,321,0.0,0.0,90,0.00,,,0.00,0.0,WUHU216DAVISVP2,2013-01-17 12:14:00,
2013-01-17 04:19:00,30.7,28.4,30.27,NW,321,0.0,1.0,91,0.00,,,0.00,0.0,WUHU216DAVISVP2,2013-01-17 12:19:00,
2013-01-17 04:24:00,30.4,28.1,30.27,NW,321,0.0,1.0,91,0.00,,,0.00,0.0,WUHU216DAVISVP2,2013-01-17 12:24:00,
2013-01-17 04:29:00,30.3,28.2,30.26,NW,321,1.0,2.0,92,0.00,,,0.00,0.0,WUHU216DAVISVP2,2013-01-17 12:29:00,
2013-01-17 04:34:00,30.4,28.3,30.26,NW,321,0.0,2.0,92,0.00,,,0.00,0.0,WUHU216DAVISVP2,2013-01-17 12:34:00,
2013-01-17 04:39:00,30.7,28.9,30.26,NW,321,0.0,2.0,93,0.00,,,0.00,0.0,WUHU216DAVISVP2,2013-01-17 12:39:00,
2013-01-17 04:44:00,30.5,28.5,30.26,NW,321,0.0,2.0,92,0.00,,,0.00,0.0,WUHU216DAVISVP2,2013-01-17 12:44:00,
2013-01-17 04:49:00,30.6,28.8,30.26,NW,321,0.0,1.0,93,0.00,,,0.00,0.0,WUHU216DAVISVP2,2013-01-17 12:49:00,
2013-01-17 04:54:00,30.5,28.7,30.26,NW,321,0.0,1.0,93,0.00,,,0.00,0.0,WUHU216DAVISVP2,2013-01-17 12:54:00,
2013-01-17 04:59:00,30.6,28.8,30.26,NW,321,0.0,0.0,93,0.00,,,0.00,0.0,WUHU216DAVISVP2,2013-01-17 12:59:00,
2013-01-17 05:04:00,30.6,28.8,30.26,NW,321,0.0,0.0,93,0.00,,,0.00,0.0,WUHU216DAVISVP2,2013-01-17 13:04:00,
2013-01-17 05:09:00,30.7,28.9,30.26,NW,321,0.0,0.0,93,0.00,,,0.00,0.0,WUHU216DAVISVP2,2013-01-17 13:09:00,
2013-01-17 05:14:00,30.7,28.9,30.26,NW,321,0.0,0.0,93,0.00,,,0.00,0.0,WUHU216DAVISVP2,2013-01-17 13:14:00,
2013-01-17 05:19:00,30.8,29.3,30.25,NW,321,0.0,0.0,94,0.00,,,0.00,0.0,WUHU216DAVISVP2,2013-01-17 13:19:00,
2013-01-17 05:24:00,31.3,29.8,30.25,NW,321,0.0,0.0,94,0.00,,,0.00,0.0,WUHU216DAVISVP2,2013-01-17 13:24:00,
2013-01-17 05:29:00,31.6,30.1,30.25,NW,321,0.0,0.0,94,0.00,,,0.00,0.0,WUHU216DAVISVP2,2013-01-17 13:29:00,
2013-01-17 05:34:00,31.3,29.7,30.25,NW,321,0.0,0.0,94,0.00,,,0.00,0.0,WUHU216DAVISVP2,2013-01-17 13:34:00,
2013-01-17 05:39:00,31.1,29.5,30.25,NW,321,0.0,0.0,94,0.00,,,0.00,0.0,WUHU216DAVISVP2,2013-01-17 13:39:00,
2013-01-17 05:44:00,31.0,29.4,30.25,NW,321,0.0,0.0,94,0.00,,,0.00,0.0,WUHU216DAVISVP2,2013-01-17 13:44:00,
2013-01-17 05:49:00,31.0,29.4,30.25,NW,321,0.0,0.0,94,0.00,,,0.00,0.0,WUHU216DAVISVP2,2013-01-17 13:49:00,
2013-01-17 05:54:00,31.0,29.4,30.25,NW,321,0.0,0.0,94,0.00,,,0.00,0.0,WUHU216DAVISVP2,2013-01-17 13:54:00,
2013-01-17 05:59:00,31.2,29.7,30.26,NW,321,0.0,0.0,94,0.00,,,0.00,0.0,WUHU216DAVISVP2,2013-01-17 13:59:00,
2013-01-17 06:04:00,30.9,29.1,30.25,NW,321,0.0,0.0,93,0.00,,,0.00,0.0,WUHU216DAVISVP2,2013-01-17 14:04:00,
2013-01-17 06:09:00,30.5,28.7,30.25,NW,321,0.0,0.0,93,0.00,,,0.00,0.0,WUHU216DAVISVP2,2013-01-17 14:09:00,
2013-01-17 06:14:00,30.2,28.4,30.25,NW,321,0.0,0.0,93,0.00,,,0.00,0.0,WUHU216DAVISVP2,2013-01-17 14:14:00,
2013-01-17 06:19:00,30.0,28.2,30.26,NW,321,0.0,0.0,93,0.00,,,0.00,0.0,WUHU216DAVISVP2,2013-01-17 14:19:00,
2013-01-17 06:24:00,30.0,28.2,30.26,NW,321,0.0,0.0,93,0.00,,,0.00,0.0,WUHU216DAVISVP2,2013-01-17 14:24:00,
2013-01-17 06:29:00,30.0,28.2,30.26,NW,321,0.0,0.0,93,0.00,,,0.00,0.0,WUHU216DAVISVP2,2013-01-17 14:29:00,
2013-01-17 06:34:00,29.8,28.0,30.26,NW,321,0.0,0.0,93,0.00,,,0.00,0.0,WUHU216DAVISVP2,2013-01-17 14:34:00,
2013-01-17 06:39:00,29.7,27.9,30.26,NW,321,0.0,0.0,93,0.00,,,0.00,0.0,WUHU216DAVISVP2,2013-01-17 14:39:00,
2013-01-17 06:44:00,29.7,27.9,30.26,NW,321,0.0,0.0,93,0.00,,,0.00,0.0,WUHU216DAVISVP2,2013-01-17 14:44:00,
2013-01-17 06:49:00,29.7,27.9,30.26,NW,321,0.0,0.0,93,0.00,,,0.00,0.0,WUHU216DAVISVP2,2013-01-17 14:49:00,
2013-01-17 06:54:00,29.8,28.3,30.26,NW,321,0.0,0.0,94,0.00,,,0.00,0.0,WUHU216DAVISVP2,2013-01-17 14:54:00,
2013-01-17 06:59:00,29.8,28.2,30.26,NW,321,0.0,0.0,94,0.00,,,0.00,0.0,WUHU216DAVISVP2,2013-01-17 14:59:00,
2013-01-17 07:04:00,29.8,28.2,30.26,NW,321,0.0,0.0,94,0.00,,,0.00,0.0,WUHU216DAVISVP2,2013-01-17 15:04:00,
2013-01-17 07:09:00,30.0,28.4,30.26,NW,321,0.0,0.0,94,0.00,,,0.00,5.0,WUHU216DAVISVP2,2013-01-17 15:09:00,
2013-01-17 07:14:00,30.1,28.5,30.26,NW,321,0.0,0.0,94,0.00,,,0.00,7.0,WUHU216DAVISVP2,2013-01-17 15:14:00,
2013-01-17 07:19:00,30.0,28.2,30.26,NW,321,0.0,0.0,93,0.00,,,0.00,11.0,WUHU216DAVISVP2,2013-01-17 15:19:00,
2013-01-17 07:24:00,30.1,28.3,30.26,NW,321,0.0,0.0,93,0.00,,,0.00,16.0,WUHU216DAVISVP2,2013-01-17 15:24:00,
2013-01-17 07:29:00,30.3,28.7,30.27,NW,321,0.0,0.0,94,0.00,,,0.00,19.0,WUHU216DAVISVP2,2013-01-17 15:29:00,
2013-01-17 07:34:00,30.6,29.0,30.27,NW,321,0.0,0.0,94,0.00,,,0.00,28.0,WUHU216DAVISVP2,2013-01-17 15:34:00,
2013-01-17 07:39:00,31.0,29.2,30.27,NW,321,0.0,0.0,93,0.00,,,0.00,39.0,WUHU216DAVISVP2,2013-01-17 15:39:00,
2013-01-17 07:44:00,31.5,29.7,30.27,NW,321,0.0,0.0,93,0.00,,,0.00,51.0,WUHU216DAVISVP2,2013-01-17 15:44:00,
2013-01-17 07:49:00,32.1,30.3,30.27,NW,321,0.0,1.0,93,0.00,,,0.00,63.0,WUHU216DAVISVP2,2013-01-17 15:49:00,
2013-01-17 07:54:00,32.9,31.0,30.27,NW,321,0.0,1.0,93,0.00,,,0.00,76.0,WUHU216DAVISVP2,2013-01-17 15:54:00,
2013-01-17 07:59:00,33.3,31.2,30.28,NW,321,0.0,1.0,92,0.00,,,0.00,88.0,WUHU216DAVISVP2,2013-01-17 15:59:00,
2013-01-17 08:04:00,34.1,31.7,30.28,NW,321,0.0,1.0,91,0.00,,,0.00,97.0,WUHU216DAVISVP2,2013-01-17 16:04:00,
2013-01-17 08:09:00,35.0,32.6,30.28,NW,321,0.0,0.0,91,0.00,,,0.00,104.0,WUHU216DAVISVP2,2013-01-17 16:09:00,
2013-01-17 08:14:00,35.9,32.9,30.28,NW,321,0.0,0.0,89,0.00,,,0.00,118.0,WUHU216DAVISVP2,2013-01-17 16:14:00,
2013-01-17 08:19:00,36.5,33.2,30.28,NW,321,0.0,0.0,88,0.00,,,0.00,128.0,WUHU216DAVISVP2,2013-01-17 16:19:00,
2013-01-17 08:24:00,36.5,33.3,30.28,NW,321,0.0,0.0,88,0.00,,,0.00,146.0,WUHU216DAVISVP2,2013-01-17 16:24:00,
2013-01-17 08:29:00,37.0,33.8,30.28,NW,321,0.0,0.0,88,0.00,,,0.00,162.0,WUHU216DAVISVP2,2013-01-17 16:29:00,
2013-01-17 08:34:00,37.5,34.5,30.29,NW,321,0.0,0.0,89,0.00,,,0.00,176.0,WUHU216DAVISVP2,2013-01-17 16:34:00,
2013-01-17 08:39:00,38.5,35.2,30.29,NW,321,0.0,1.0,88,0.00,,,0.00,192.0,WUHU216DAVISVP2,2013-01-17 16:39:00,
2013-01-17 08:44:00,39.5,35.6,30.29,NW,321,0.0,2.0,86,0.00,,,0.00,206.0,WUHU216DAVISVP2,2013-01-17 16:44:00,
2013-01-17 08:49:00,40.1,35.9,30.29,NW,321,1.0,2.0,85,0.00,,,0.00,221.0,WUHU216DAVISVP2,2013-01-17 16:49:00,
2013-01-17 08:54:00,40.6,36.1,30.29,NW,321,0.0,2.0,84,0.00,,,0.00,234.0,WUHU216DAVISVP2,2013-01-17 16:54:00,
2013-01-17 08:59:00,41.2,36.4,30.30,NW,321,2.0,3.0,83,0.00,,,0.00,244.0,WUHU216DAVISVP2,2013-01-17 16:59:00,
2013-01-17 09:04:00,41.6,36.5,30.30,NW,321,1.0,3.0,82,0.00,,,0.00,255.0,WUHU216DAVISVP2,2013-01-17 17:04:00,
2013-01-17 09:09:00,42.3,36.9,30.29,NW,321,2.0,3.0,81,0.00,,,0.00,269.0,WUHU216DAVISVP2,2013-01-17 17:09:00,
2013-01-17 09:14:00,43.0,37.0,30.30,NW,321,1.0,4.0,79,0.00,,,0.00,281.0,WUHU216DAVISVP2,2013-01-17 17:14:00,
2013-01-17 09:19:00,43.7,37.3,30.30,NW,321,2.0,4.0,78,0.00,,,0.00,294.0,WUHU216DAVISVP2,2013-01-17 17:19:00,
2013-01-17 09:24:00,44.0,36.6,30.30,NW,321,2.0,4.0,75,0.00,,,0.00,313.0,WUHU216DAVISVP2,2013-01-17 17:24:00,
2013-01-17 09:29:00,44.2,37.2,30.30,NW,321,2.0,4.0,76,0.00,,,0.00,330.0,WUHU216DAVISVP2,2013-01-17 17:29:00,
2013-01-17 09:34:00,44.6,36.9,30.29,NW,321,3.0,4.0,74,0.00,,,0.00,346.0,WUHU216DAVISVP2,2013-01-17 17:34:00,
2013-01-17 09:39:00,45.0,37.3,30.29,NW,322,1.0,4.0,74,0.00,,,0.00,359.0,WUHU216DAVISVP2,2013-01-17 17:39:00,
2013-01-17 09:43:00,45.6,37.5,30.29,NW,322,2.0,4.0,73,0.00,,,0.00,367.0,WUHU216DAVISVP2,2013-01-17 17:43:00,
2013-01-17 09:48:00,46.0,37.9,30.29,NW,322,2.0,4.0,73,0.00,,,0.00,381.0,WUHU216DAVISVP2,2013-01-17 17:48:00,
2013-01-17 09:53:00,46.3,37.5,30.29,NW,317,0.0,3.0,71,0.00,,,0.00,392.0,WUHU216DAVISVP2,2013-01-17 17:53:00,
2013-01-17 09:58:00,46.7,37.8,30.29,WNW,302,2.0,3.0,71,0.00,,,0.00,403.0,WUHU216DAVISVP2,2013-01-17 17:58:00,
2013-01-17 10:03:00,46.9,36.9,30.29,SSW,211,4.0,4.0,68,0.00,,,0.00,413.0,WUHU216DAVISVP2,2013-01-17 18:03:00,
2013-01-17 10:08:00,47.0,37.0,30.29,SSW,196,1.0,4.0,68,0.00,,,0.00,422.0,WUHU216DAVISVP2,2013-01-17 18:08:00,
2013-01-17 10:13:00,47.2,37.2,30.29,SSW,200,1.0,5.0,68,0.00,,,0.00,425.0,WUHU216DAVISVP2,2013-01-17 18:13:00,
2013-01-17 10:18:00,47.8,37.0,30.28,SSW,200,2.0,5.0,66,0.00,,,0.00,429.0,WUHU216DAVISVP2,2013-01-17 18:18:00,
2013-01-17 10:23:00,48.0,36.9,30.28,SSW,199,2.0,5.0,65,0.00,,,0.00,452.0,WUHU216DAVISVP2,2013-01-17 18:23:00,
2013-01-17 10:28:00,48.4,36.9,30.28,SSW,199,1.0,4.0,64,0.00,,,0.00,461.0,WUHU216DAVISVP2,2013-01-17 18:28:00,
2013-01-17 10:33:00,49.2,37.2,30.28,SSW,199,0.0,4.0,63,0.00,,,0.00,469.0,WUHU216DAVISVP2,2013-01-17 18:33:00,
2013-01-17 10:38:00,49.5,37.5,30.28,SSW,199,0.0,4.0,63,0.00,,,0.00,476.0,WUHU216DAVISVP2,2013-01-17 18:38:00,
2013-01-17 10:43:00,50.0,37.6,30.27,SSW,199,0.0,3.0,62,0.00,,,0.00,483.0,WUHU216DAVISVP2,2013-01-17 18:43:00,
2013-01-17 10:49:00,50.5,37.6,30.27,SSW,199,0.0,4.0,61,0.00,,,0.00,492.0,WUHU216DAVISVP2,2013-01-17 18:49:00,
2013-01-17 10:54:00,51.0,37.7,30.27,SSW,199,1.0,4.0,60,0.00,,,0.00,496.0,WUHU216DAVISVP2,2013-01-17 18:54:00,
2013-01-17 10:59:00,51.2,37.9,30.26,ESE,123,0.0,4.0,60,0.00,,,0.00,492.0,WUHU216DAVISVP2,2013-01-17 18:59:00,
2013-01-17 11:04:00,51.8,38.9,30.26,ESE,123,0.0,4.0,61,0.00,,,0.00,508.0,WUHU216DAVISVP2,2013-01-17 19:04:00,
2013-01-17 11:09:00,52.3,38.5,30.26,SSE,156,1.0,3.0,59,0.00,,,0.00,513.0,WUHU216DAVISVP2,2013-01-17 19:09:00,
2013-01-17 11:14:00,52.8,38.5,30.26,SSE,155,0.0,3.0,58,0.00,,,0.00,519.0,WUHU216DAVISVP2,2013-01-17 19:14:00,
2013-01-17 11:19:00,53.2,38.4,30.25,WNW,295,2.0,4.0,57,0.00,,,0.00,522.0,WUHU216DAVISVP2,2013-01-17 19:19:00,
2013-01-17 11:24:00,52.8,38.1,30.25,WNW,286,2.0,4.0,57,0.00,,,0.00,527.0,WUHU216DAVISVP2,2013-01-17 19:24:00,
2013-01-17 11:29:00,52.7,38.0,30.25,WNW,286,1.0,4.0,57,0.00,,,0.00,531.0,WUHU216DAVISVP2,2013-01-17 19:29:00,
2013-01-17 11:34:00,53.2,38.4,30.24,WNW,286,2.0,4.0,57,0.00,,,0.00,534.0,WUHU216DAVISVP2,2013-01-17 19:34:00,
2013-01-17 11:39:00,53.9,39.1,30.24,WNW,286,0.0,3.0,57,0.00,,,0.00,536.0,WUHU216DAVISVP2,2013-01-17 19:39:00,
2013-01-17 11:44:00,54.3,38.5,30.24,NNW,340,3.0,4.0,55,0.00,,,0.00,536.0,WUHU216DAVISVP2,2013-01-17 19:44:00,
2013-01-17 11:49:00,54.6,38.7,30.23,NNW,340,3.0,4.0,55,0.00,,,0.00,536.0,WUHU216DAVISVP2,2013-01-17 19:49:00,
2013-01-17 11:54:00,55.0,38.6,30.23,NNW,342,1.0,4.0,54,0.00,,,0.00,547.0,WUHU216DAVISVP2,2013-01-17 19:54:00,
2013-01-17 11:59:00,55.4,38.5,30.23,NNW,342,0.0,4.0,53,0.00,,,0.00,545.0,WUHU216DAVISVP2,2013-01-17 19:59:00,
2013-01-17 12:04:00,55.7,38.8,30.22,NNW,341,0.0,4.0,53,0.00,,,0.00,543.0,WUHU216DAVISVP2,2013-01-17 20:04:00,
2013-01-17 12:09:00,55.6,39.2,30.22,ENE,61,0.0,5.0,54,0.00,,,0.00,536.0,WUHU216DAVISVP2,2013-01-17 20:09:00,
2013-01-17 12:14:00,55.6,38.7,30.22,NNE,17,2.0,5.0,53,0.00,,,0.00,543.0,WUHU216DAVISVP2,2013-01-17 20:14:00,
2013-01-17 12:19:00,56.0,39.1,30.22,NNE,28,2.0,5.0,53,0.00,,,0.00,543.0,WUHU216DAVISVP2,2013-01-17 20:19:00,
2013-01-17 12:24:00,56.2,39.8,30.21,NNE,29,2.0,5.0,54,0.00,,,0.00,543.0,WUHU216DAVISVP2,2013-01-17 20:24:00,
2013-01-17 12:29:00,56.1,39.7,30.21,NNE,29,0.0,4.0,54,0.00,,,0.00,533.0,WUHU216DAVISVP2,2013-01-17 20:29:00,
2013-01-17 12:34:00,56.5,40.5,30.21,NNW,347,1.0,4.0,55,0.00,,,0.00,540.0,WUHU216DAVISVP2,2013-01-17 20:34:00,
2013-01-17 12:39:00,56.6,40.6,30.20,North,355,4.0,5.0,55,0.00,,,0.00,534.0,WUHU216DAVISVP2,2013-01-17 20:39:00,
2013-01-17 12:44:00,56.9,41.4,30.20,North,355,2.0,5.0,56,0.00,,,0.00,533.0,WUHU216DAVISVP2,2013-01-17 20:44:00,
2013-01-17 12:49:00,56.9,40.4,30.20,NNE,19,1.0,5.0,54,0.00,,,0.00,531.0,WUHU216DAVISVP2,2013-01-17 20:49:00,
2013-01-17 12:54:00,57.4,39.9,30.20,NNW,346,2.0,6.0,52,0.00,,,0.00,527.0,WUHU216DAVISVP2,2013-01-17 20:54:00,
2013-01-17 12:59:00,57.8,40.3,30.19,NNW,346,2.0,6.0,52,0.00,,,0.00,524.0,WUHU216DAVISVP2,2013-01-17 20:59:00,
2013-01-17 13:04:00,57.9,39.9,30.19,NNW,345,1.0,6.0,51,0.00,,,0.00,520.0,WUHU216DAVISVP2,2013-01-17 21:04:00,
2013-01-17 13:09:00,57.8,39.3,30.19,NNW,345,1.0,6.0,50,0.00,,,0.00,517.0,WUHU216DAVISVP2,2013-01-17 21:09:00,
2013-01-17 13:14:00,57.9,39.4,30.19,NNW,348,0.0,4.0,50,0.00,,,0.00,512.0,WUHU216DAVISVP2,2013-01-17 21:14:00,
2013-01-17 13:19:00,58.6,40.0,30.18,NNW,348,2.0,5.0,50,0.00,,,0.00,508.0,WUHU216DAVISVP2,2013-01-17 21:19:00,
2013-01-17 13:24:00,58.9,38.7,30.18,NNW,348,0.0,5.0,47,0.00,,,0.00,501.0,WUHU216DAVISVP2,2013-01-17 21:24:00,
2013-01-17 13:29:00,58.9,39.8,30.18,NNW,348,0.0,5.0,49,0.00,,,0.00,496.0,WUHU216DAVISVP2,2013-01-17 21:29:00,
2013-01-17 13:34:00,59.3,40.7,30.18,NNW,348,1.0,5.0,50,0.00,,,0.00,482.0,WUHU216DAVISVP2,2013-01-17 21:34:00,
2013-01-17 13:39:00,59.8,40.6,30.18,NNW,348,0.0,4.0,49,0.00,,,0.00,480.0,WUHU216DAVISVP2,2013-01-17 21:39:00,
2013-01-17 13:44:00,60.0,40.2,30.18,West,279,2.0,4.0,48,0.00,,,0.00,469.0,WUHU216DAVISVP2,2013-01-17 21:44:00,
2013-01-17 13:49:00,60.1,40.3,30.18,NW,317,1.0,4.0,48,0.00,,,0.00,462.0,WUHU216DAVISVP2,2013-01-17 21:49:00,
2013-01-17 13:54:00,60.5,40.7,30.18,NW,317,4.0,4.0,48,0.00,,,0.00,457.0,WUHU216DAVISVP2,2013-01-17 21:54:00,
2013-01-17 13:59:00,60.6,39.6,30.17,NW,317,0.0,4.0,46,0.00,,,0.00,448.0,WUHU216DAVISVP2,2013-01-17 21:59:00,
2013-01-17 14:04:00,60.4,38.3,30.17,WNW,292,1.0,5.0,44,0.00,,,0.00,438.0,WUHU216DAVISVP2,2013-01-17 22:04:00,
2013-01-17 14:09:00,60.4,38.9,30.17,WNW,296,1.0,5.0,45,0.00,,,0.00,427.0,WUHU216DAVISVP2,2013-01-17 22:09:00,
2013-01-17 14:14:00,60.6,40.2,30.17,WNW,296,0.0,5.0,47,0.00,,,0.00,415.0,WUHU216DAVISVP2,2013-01-17 22:14:00,
2013-01-17 14:19:00,61.2,40.8,30.17,NW,323,2.0,5.0,47,0.00,,,0.00,404.0,WUHU216DAVISVP2,2013-01-17 22:19:00,
2013-01-17 14:24:00,61.5,41.1,30.17,NW,325,2.0,5.0,47,0.00,,,0.00,396.0,WUHU216DAVISVP2,2013-01-17 22:24:00,
2013-01-17 14:29:00,61.2,40.8,30.17,NW,325,1.0,5.0,47,0.00,,,0.00,385.0,WUHU216DAVISVP2,2013-01-17 22:29:00,
2013-01-17 14:34:00,61.4,41.5,30.17,NW,325,1.0,5.0,48,0.00,,,0.00,376.0,WUHU216DAVISVP2,2013-01-17 22:34:00,
2013-01-17 14:39:00,61.6,41.2,30.17,NW,305,1.0,6.0,47,0.00,,,0.00,367.0,WUHU216DAVISVP2,2013-01-17 22:39:00,
2013-01-17 14:44:00,61.6,41.1,30.17,NW,308,2.0,6.0,47,0.00,,,0.00,353.0,WUHU216DAVISVP2,2013-01-17 22:44:00,
2013-01-17 14:49:00,61.7,41.2,30.17,NW,325,0.0,6.0,47,0.00,,,0.00,339.0,WUHU216DAVISVP2,2013-01-17 22:49:00,
2013-01-17 14:54:00,61.6,41.1,30.17,NW,325,0.0,6.0,47,0.00,,,0.00,329.0,WUHU216DAVISVP2,2013-01-17 22:54:00,
2013-01-17 14:59:00,61.8,41.3,30.17,NW,325,3.0,5.0,47,0.00,,,0.00,316.0,WUHU216DAVISVP2,2013-01-17 22:59:00,
2013-01-17 15:04:00,61.8,40.7,30.17,NW,325,2.0,5.0,46,0.00,,,0.00,301.0,WUHU216DAVISVP2,2013-01-17 23:04:00,
2013-01-17 15:09:00,61.5,40.5,30.17,NW,325,3.0,5.0,46,0.00,,,0.00,287.0,WUHU216DAVISVP2,2013-01-17 23:09:00,
2013-01-17 15:14:00,61.3,40.3,30.17,NW,325,0.0,5.0,46,0.00,,,0.00,272.0,WUHU216DAVISVP2,2013-01-17 23:14:00,
2013-01-17 15:19:00,61.3,40.3,30.17,NW,325,2.0,5.0,46,0.00,,,0.00,257.0,WUHU216DAVISVP2,2013-01-17 23:19:00,
2013-01-17 15:24:00,61.6,40.6,30.17,NW,325,4.0,5.0,46,0.00,,,0.00,239.0,WUHU216DAVISVP2,2013-01-17 23:24:00,
2013-01-17 15:28:00,61.9,40.3,30.17,NW,325,1.0,4.0,45,0.00,,,0.00,221.0,WUHU216DAVISVP2,2013-01-17 23:28:00,
2013-01-17 15:33:00,62.2,41.1,30.17,NW,325,1.0,4.0,46,0.00,,,0.00,202.0,WUHU216DAVISVP2,2013-01-17 23:33:00,
2013-01-17 15:38:00,62.0,41.0,30.17,NW,325,0.0,4.0,46,0.00,,,0.00,186.0,WUHU216DAVISVP2,2013-01-17 23:38:00,
2013-01-17 15:43:00,62.0,40.3,30.17,NW,325,0.0,4.0,45,0.00,,,0.00,171.0,WUHU216DAVISVP2,2013-01-17 23:43:00,
2013-01-17 15:48:00,62.0,41.5,30.17,NW,325,0.0,4.0,47,0.00,,,0.00,158.0,WUHU216DAVISVP2,2013-01-17 23:48:00,
2013-01-17 15:53:00,62.3,41.2,30.17,NW,325,1.0,2.0,46,0.00,,,0.00,141.0,WUHU216DAVISVP2,2013-01-17 23:53:00,
2013-01-17 15:58:00,62.4,41.3,30.17,NW,325,2.0,4.0,46,0.00,,,0.00,123.0,WUHU216DAVISVP2,2013-01-17 23:58:00,
2013-01-17 16:03:00,62.1,41.0,30.17,NW,325,2.0,4.0,46,0.00,,,0.00,105.0,WUHU216DAVISVP2,2013-01-18 00:03:00,
2013-01-17 16:08:00,62.0,40.9,30.17,NW,325,1.0,4.0,46,0.00,,,0.00,91.0,WUHU216DAVISVP2,2013-01-18 00:08:00,
2013-01-17 16:13:00,61.9,40.8,30.17,NW,325,1.0,4.0,46,0.00,,,0.00,77.0,WUHU216DAVISVP2,2013-01-18 00:13:00,
2013-01-17 16:18:00,61.9,40.8,30.16,NW,325,0.0,3.0,46,0.00,,,0.00,67.0,WUHU216DAVISVP2,2013-01-18 00:18:00,
2013-01-17 16:23:00,61.9,40.8,30.16,NW,325,1.0,3.0,46,0.00,,,0.00,56.0,WUHU216DAVISVP2,2013-01-18 00:23:00,
2013-01-17 16:28:00,61.5,40.5,30.17,NW,325,0.0,3.0,46,0.00,,,0.00,44.0,WUHU216DAVISVP2,2013-01-18 00:28:00,
2013-01-17 16:33:00,61.4,40.4,30.17,NW,325,0.0,3.0,46,0.00,,,0.00,37.0,WUHU216DAVISVP2,2013-01-18 00:33:00,
2013-01-17 16:38:00,61.3,40.9,30.17,NW,325,0.0,3.0,47,0.00,,,0.00,26.0,WUHU216DAVISVP2,2013-01-18 00:38:00,
2013-01-17 16:43:00,61.2,40.8,30.17,NW,325,0.0,3.0,47,0.00,,,0.00,26.0,WUHU216DAVISVP2,2013-01-18 00:43:00,
2013-01-17 16:48:00,61.0,40.6,30.17,NW,325,0.0,2.0,47,0.00,,,0.00,23.0,WUHU216DAVISVP2,2013-01-18 00:48:00,
2013-01-17 16:53:00,60.6,40.8,30.17,NW,325,1.0,2.0,48,0.00,,,0.00,18.0,WUHU216DAVISVP2,2013-01-18 00:53:00,
2013-01-17 16:58:00,60.1,40.3,30.17,NW,325,1.0,2.0,48,0.00,,,0.00,14.0,WUHU216DAVISVP2,2013-01-18 00:58:00,
2013-01-17 17:03:00,59.6,39.9,30.17,NW,325,1.0,2.0,48,0.00,,,0.00,7.0,WUHU216DAVISVP2,2013-01-18 01:03:00,
2013-01-17 17:08:00,59.2,40.0,30.17,NW,325,0.0,2.0,49,0.00,,,0.00,0.0,WUHU216DAVISVP2,2013-01-18 01:08:00,
2013-01-17 17:13:00,58.8,39.7,30.17,NW,325,0.0,2.0,49,0.00,,,0.00,0.0,WUHU216DAVISVP2,2013-01-18 01:13:00,
2013-01-17 17:18:00,58.6,40.0,30.17,NW,325,0.0,1.0,50,0.00,,,0.00,0.0,WUHU216DAVISVP2,2013-01-18 01:18:00,
2013-01-17 17:23:00,58.2,40.2,30.17,NW,325,0.0,1.0,51,0.00,,,0.00,0.0,WUHU216DAVISVP2,2013-01-18 01:23:00,
2013-01-17 17:28:00,57.4,39.9,30.17,NW,325,0.0,1.0,52,0.00,,,0.00,0.0,WUHU216DAVISVP2,2013-01-18 01:28:00,
2013-01-17 17:33:00,56.8,40.4,30.17,NW,325,0.0,0.0,54,0.00,,,0.00,0.0,WUHU216DAVISVP2,2013-01-18 01:33:00,
2013-01-17 17:38:00,56.3,40.4,30.17,NW,325,0.0,0.0,55,0.00,,,0.00,0.0,WUHU216DAVISVP2,2013-01-18 01:38:00,
2013-01-17 17:43:00,55.9,40.5,30.17,NW,325,0.0,0.0,56,0.00,,,0.00,0.0,WUHU216DAVISVP2,2013-01-18 01:43:00,
2013-01-17 17:48:00,55.5,40.6,30.17,NW,325,0.0,0.0,57,0.00,,,0.00,0.0,WUHU216DAVISVP2,2013-01-18 01:48:00,
2013-01-17 17:53:00,55.3,40.4,30.18,NW,325,0.0,0.0,57,0.00,,,0.00,0.0,WUHU216DAVISVP2,2013-01-18 01:53:00,
2013-01-17 17:58:00,54.9,40.0,30.17,NW,325,0.0,0.0,57,0.00,,,0.00,0.0,WUHU216DAVISVP2,2013-01-18 01:58:00,
2013-01-17 18:03:00,55.1,39.3,30.17,NW,325,3.0,3.0,55,0.00,,,0.00,0.0,WUHU216DAVISVP2,2013-01-18 02:03:00,
2013-01-17 18:08:00,55.3,39.5,30.17,NW,325,1.0,4.0,55,0.00,,,0.00,0.0,WUHU216DAVISVP2,2013-01-18 02:08:00,
2013-01-17 18:13:00,55.3,39.9,30.18,NW,325,1.0,4.0,56,0.00,,,0.00,0.0,WUHU216DAVISVP2,2013-01-18 02:13:00,
2013-01-17 18:18:00,54.4,39.6,30.17,NW,325,0.0,4.0,57,0.00,,,0.00,0.0,WUHU216DAVISVP2,2013-01-18 02:18:00,
2013-01-17 18:23:00,53.9,39.1,30.18,NW,325,0.0,4.0,57,0.00,,,0.00,0.0,WUHU216DAVISVP2,2013-01-18 02:23:00,
2013-01-17 18:28:00,54.0,39.2,30.17,NW,325,0.0,2.0,57,0.00,,,0.00,0.0,WUHU216DAVISVP2,2013-01-18 02:28:00,
2013-01-17 18:33:00,52.6,39.6,30.18,NW,325,0.0,2.0,61,0.00,,,0.00,0.0,WUHU216DAVISVP2,2013-01-18 02:33:00,
2013-01-17 18:38:00,51.6,39.5,30.17,NW,325,1.0,2.0,63,0.00,,,0.00,0.0,WUHU216DAVISVP2,2013-01-18 02:38:00,
2013-01-17 18:43:00,51.2,39.6,30.17,NW,325,0.0,2.0,64,0.00,,,0.00,0.0,WUHU216DAVISVP2,2013-01-18 02:43:00,
2013-01-17 18:48:00,50.2,39.0,30.17,NW,325,1.0,2.0,65,0.00,,,0.00,0.0,WUHU216DAVISVP2,2013-01-18 02:48:00,
2013-01-17 18:53:00,49.8,39.0,30.17,NW,325,0.0,2.0,66,0.00,,,0.00,0.0,WUHU216DAVISVP2,2013-01-18 02:53:00,
2013-01-17 18:58:00,49.5,38.7,30.17,NW,325,0.0,2.0,66,0.00,,,0.00,0.0,WUHU216DAVISVP2,2013-01-18 02:58:00,
2013-01-17 19:04:00,49.5,38.7,30.18,NW,325,0.0,2.0,66,0.00,,,0.00,0.0,WUHU216DAVISVP2,2013-01-18 03:04:00,
2013-01-17 19:09:00,49.6,39.1,30.18,NW,325,0.0,2.0,67,0.00,,,0.00,0.0,WUHU216DAVISVP2,2013-01-18 03:09:00,
2013-01-17 19:14:00,49.6,38.7,30.17,NW,325,0.0,0.0,66,0.00,,,0.00,0.0,WUHU216DAVISVP2,2013-01-18 03:14:00,
2013-01-17 19:19:00,49.3,38.8,30.18,NW,325,0.0,0.0,67,0.00,,,0.00,0.0,WUHU216DAVISVP2,2013-01-18 03:19:00,
2013-01-17 19:24:00,48.9,38.5,30.18,NW,325,0.0,2.0,67,0.00,,,0.00,0.0,WUHU216DAVISVP2,2013-01-18 03:24:00,
2013-01-17 19:29:00,48.7,38.7,30.18,NW,325,0.0,2.0,68,0.00,,,0.00,0.0,WUHU216DAVISVP2,2013-01-18 03:29:00,
2013-01-17 19:34:00,48.5,38.5,30.18,NW,324,2.0,2.0,68,0.00,,,0.00,0.0,WUHU216DAVISVP2,2013-01-18 03:34:00,
2013-01-17 19:38:00,48.4,38.4,30.18,NW,325,0.0,2.0,68,0.00,,,0.00,0.0,WUHU216DAVISVP2,2013-01-18 03:38:00,
2013-01-17 19:43:00,48.4,38.4,30.18,NW,325,0.0,2.0,68,0.00,,,0.00,0.0,WUHU216DAVISVP2,2013-01-18 03:43:00,
2013-01-17 19:48:00,48.2,38.2,30.18,NW,325,0.0,2.0,68,0.00,,,0.00,0.0,WUHU216DAVISVP2,2013-01-18 03:48:00,
2013-01-17 19:53:00,48.0,38.4,30.18,NW,325,0.0,2.0,69,0.00,,,0.00,0.0,WUHU216DAVISVP2,2013-01-18 03:53:00,
2013-01-17 19:58:00,47.9,38.3,30.18,NW,325,0.0,0.0,69,0.00,,,0.00,0.0,WUHU216DAVISVP2,2013-01-18 03:58:00,
2013-01-17 20:03:00,47.5,37.9,30.18,NW,325,0.0,0.0,69,0.00,,,0.00,0.0,WUHU216DAVISVP2,2013-01-18 04:03:00,
2013-01-17 20:08:00,47.2,38.0,30.18,NW,325,0.0,0.0,70,0.00,,,0.00,0.0,WUHU216DAVISVP2,2013-01-18 04:08:00,
2013-01-17 20:13:00,46.6,38.1,30.18,NW,325,0.0,0.0,72,0.00,,,0.00,0.0,WUHU216DAVISVP2,2013-01-18 04:13:00,
2013-01-17 20:18:00,46.2,37.8,30.19,NW,325,0.0,0.0,72,0.00,,,0.00,0.0,WUHU216DAVISVP2,2013-01-18 04:18:00,
2013-01-17 20:23:00,45.7,37.3,30.18,NW,325,0.0,0.0,72,0.00,,,0.00,0.0,WUHU216DAVISVP2,2013-01-18 04:23:00,
2013-01-17 20:28:00,44.8,37.4,30.19,NW,325,0.0,0.0,75,0.00,,,0.00,0.0,WUHU216DAVISVP2,2013-01-18 04:28:00,
2013-01-17 20:33:00,44.4,38.3,30.19,NW,325,0.0,0.0,79,0.00,,,0.00,0.0,WUHU216DAVISVP2,2013-01-18 04:33:00,
2013-01-17 20:38:00,44.1,37.4,30.19,NW,324,0.0,0.0,77,0.00,,,0.00,0.0,WUHU216DAVISVP2,2013-01-18 04:38:00,
2013-01-17 20:43:00,43.7,37.3,30.19,NW,325,0.0,0.0,78,0.00,,,0.00,0.0,WUHU216DAVISVP2,2013-01-18 04:43:00,
2013-01-17 20:48:00,43.4,37.4,30.19,NW,325,0.0,1.0,79,0.00,,,0.00,0.0,WUHU216DAVISVP2,2013-01-18 04:48:00,
2013-01-17 20:53:00,43.2,37.2,30.19,NW,325,0.0,2.0,79,0.00,,,0.00,0.0,WUHU216DAVISVP2,2013-01-18 04:53:00,
2013-01-17 20:58:00,43.3,37.3,30.19,NW,325,0.0,2.0,79,0.00,,,0.00,0.0,WUHU216DAVISVP2,2013-01-18 04:58:00,
2013-01-17 21:00:00,43.3,37.6,30.19,NW,325,0.0,2.0,80,0.00,,,0.00,0.0,WUHU216DAVISVP2,2013-01-18 05:00:00,
2013-01-17 21:03:00,43.4,37.4,30.19,NW,325,0.0,2.0,79,0.00,,,0.00,0.0,WUHU216DAVISVP2,2013-01-18 05:03:00,
2013-01-17 21:08:00,43.8,38.1,30.19,NW,325,0.0,2.0,80,0.00,,,0.00,0.0,WUHU216DAVISVP2,2013-01-18 05:08:00,
2013-01-17 21:13:00,43.8,37.7,30.19,NW,325,0.0,0.0,79,0.00,,,0.00,0.0,WUHU216DAVISVP2,2013-01-18 05:13:00,
2013-01-17 21:18:00,43.6,37.9,30.19,NW,325,0.0,0.0,80,0.00,,,0.00,0.0,WUHU216DAVISVP2,2013-01-18 05:18:00,
2013-01-17 21:23:00,43.4,37.4,30.19,NW,324,0.0,2.0,79,0.00,,,0.00,0.0,WUHU216DAVISVP2,2013-01-18 05:23:00,
2013-01-17 21:28:00,43.3,37.3,30.19,NW,325,0.0,2.0,79,0.00,,,0.00,0.0,WUHU216DAVISVP2,2013-01-18 05:28:00,
2013-01-17 21:33:00,43.3,37.3,30.19,NW,325,0.0,2.0,79,0.00,,,0.00,0.0,WUHU216DAVISVP2,2013-01-18 05:33:00,
2013-01-17 21:38:00,43.2,36.8,30.19,NW,325,1.0,2.0,78,0.00,,,0.00,0.0,WUHU216DAVISVP2,2013-01-18 05:38:00,
2013-01-17 21:43:00,42.9,36.9,30.19,NW,325,1.0,2.0,79,0.00,,,0.00,0.0,WUHU216DAVISVP2,2013-01-18 05:43:00,
2013-01-17 21:48:00,42.7,37.0,30.19,NW,325,0.0,2.0,80,0.00,,,0.00,0.0,WUHU216DAVISVP2,2013-01-18 05:48:00,
2013-01-17 21:53:00,42.5,36.8,30.19,NW,325,2.0,2.0,80,0.00,,,0.00,0.0,WUHU216DAVISVP2,2013-01-18 05:53:00,
2013-01-17 21:58:00,42.8,37.1,30.19,NW,325,2.0,3.0,80,0.00,,,0.00,0.0,WUHU216DAVISVP2,2013-01-18 05:58:00,
2013-01-17 22:03:00,42.8,36.8,30.19,NW,325,2.0,3.0,79,0.00,,,0.00,0.0,WUHU216DAVISVP2,2013-01-18 06:03:00,
2013-01-17 22:08:00,42.4,36.7,30.19,NW,325,1.0,3.0,80,0.00,,,0.00,0.0,WUHU216DAVISVP2,2013-01-18 06:08:00,
2013-01-17 22:13:00,42.4,37.0,30.19,NW,325,0.0,3.0,81,0.00,,,0.00,0.0,WUHU216DAVISVP2,2013-01-18 06:13:00,
2013-01-17 22:18:00,42.3,36.9,30.19,NW,325,0.0,3.0,81,0.00,,,0.00,0.0,WUHU216DAVISVP2,2013-01-18 06:18:00,
2013-01-17 22:23:00,42.2,36.8,30.19,NW,325,0.0,3.0,81,0.00,,,0.00,0.0,WUHU216DAVISVP2,2013-01-18 06:23:00,
2013-01-17 22:28:00,42.2,36.8,30.19,NW,325,0.0,2.0,81,0.00,,,0.00,0.0,WUHU216DAVISVP2,2013-01-18 06:28:00,
2013-01-17 22:33:00,41.9,36.5,30.19,NW,325,0.0,1.0,81,0.00,,,0.00,0.0,WUHU216DAVISVP2,2013-01-18 06:33:00,
2013-01-17 22:38:00,41.6,36.5,30.19,NW,325,0.0,0.0,82,0.00,,,0.00,0.0,WUHU216DAVISVP2,2013-01-18 06:38:00,
2013-01-17 22:43:00,41.4,36.6,30.18,NW,325,0.0,0.0,83,0.00,,,0.00,0.0,WUHU216DAVISVP2,2013-01-18 06:43:00,
2013-01-17 22:48:00,41.0,35.9,30.18,NW,325,0.0,0.0,82,0.00,,,0.00,0.0,WUHU216DAVISVP2,2013-01-18 06:48:00,
2013-01-17 22:53:00,40.5,35.7,30.19,NW,325,0.0,0.0,83,0.00,,,0.00,0.0,WUHU216DAVISVP2,2013-01-18 06:53:00,
2013-01-17 22:58:00,40.2,35.7,30.19,NW,325,0.0,0.0,84,0.00,,,0.00,0.0,WUHU216DAVISVP2,2013-01-18 06:58:00,
2013-01-17 23:03:00,39.4,35.0,30.19,NW,325,0.0,0.0,84,0.00,,,0.00,0.0,WUHU216DAVISVP2,2013-01-18 07:03:00,
2013-01-17 23:08:00,39.1,35.2,30.19,NW,325,0.0,0.0,86,0.00,,,0.00,0.0,WUHU216DAVISVP2,2013-01-18 07:08:00,
2013-01-17 23:13:00,38.8,34.9,30.19,NW,325,0.0,0.0,86,0.00,,,0.00,0.0,WUHU216DAVISVP2,2013-01-18 07:13:00,
2013-01-17 23:18:00,38.9,35.6,30.18,NW,325,1.0,1.0,88,0.00,,,0.00,0.0,WUHU216DAVISVP2,2013-01-18 07:18:00,
2013-01-17 23:23:00,39.6,36.6,30.19,NW,325,1.0,2.0,89,0.00,,,0.00,0.0,WUHU216DAVISVP2,2013-01-18 07:23:00,
2013-01-17 23:28:00,39.4,35.8,30.19,NW,325,0.0,4.0,87,0.00,,,0.00,0.0,WUHU216DAVISVP2,2013-01-18 07:28:00,
2013-01-17 23:33:00,39.7,36.1,30.19,NW,325,0.0,4.0,87,0.00,,,0.00,0.0,WUHU216DAVISVP2,2013-01-18 07:33:00,
2013-01-17 23:38:00,40.0,36.4,30.19,NW,325,0.0,4.0,87,0.00,,,0.00,0.0,WUHU216DAVISVP2,2013-01-18 07:38:00,
2013-01-17 23:43:00,39.7,35.5,30.19,NW,325,0.0,3.0,85,0.00,,,0.00,0.0,WUHU216DAVISVP2,2013-01-18 07:43:00,
2013-01-17 23:48:00,39.4,35.2,30.19,NW,325,0.0,1.0,85,0.00,,,0.00,0.0,WUHU216DAVISVP2,2013-01-18 07:48:00,
2013-01-17 23:53:00,39.5,36.2,30.19,NW,324,0.0,0.0,88,0.00,,,0.00,0.0,WUHU216DAVISVP2,2013-01-18 07:53:00,
2013-01-17 23:58:00,39.5,36.2,30.19,NW,325,0.0,0.0,88,0.00,,,0.00,0.0,WUHU216DAVISVP2,2013-01-18 07:58:00,